Lapse_Rate
4.5 5.8 6.4 7.0 7.2 7.3 7.4 7.5 7.5 7.4 7.4 7.4 7.3 6.5 5.8 5.4 4.9 4.8 5.1 5.5 5.9 6.3 6.4 6.4 5.8 6.3 6.5 6.4 5.5 5.3 5.5 5.7
4.9 5.6 6.4 7.0 7.2 7.3 7.2 7.4 7.5 7.5 7.5 7.4 7.2 7.2 7.0 6.8 5.8 5.3 4.5 4.8 5.5 5.9 6.0 6.2 6.3 6.1 6.2 6.4 5.9 5.8 5.1 5.7
4.4 4.6 5.1 6.1 6.2 6.8 7.2 7.1 7.2 7.2 7.2 7.1 7.0 7.0 6.9 6.5 6.6 6.5 5.5 5.0 5.0 5.4 5.7 5.9 6.1 6.1 6.3 6.1 5.7 5.6 5.5 5.5
4.7 4.9 5.0 5.5 5.8 6.2 6.7 6.8 6.5 6.8 6.9 7.0 7.0 7.1 6.8 6.6 6.4 6.5 6.4 6.2 5.9 5.7 5.4 5.5 5.8 5.8 6.0 6.3 5.9 5.1 5.1 5.3
4.7 4.7 4.7 4.8 5.3 5.8 6.4 6.6 6.4 6.6 6.8 6.8 6.9 6.9 6.8 6.6 6.4 6.2 6.2 6.1 6.1 6.0 5.7 5.5 5.4 5.5 5.6 5.9 5.8 5.5 5.6 5.2
4.6 4.6 4.7 4.7 4.8 5.5 6.1 6.5 6.7 7.0 7.0 7.0 6.8 6.8 6.9 6.7 6.5 6.3 6.0 6.0 6.0 6.0 5.8 5.6 5.8 5.2 5.3 5.4 5.9 6.2 5.8 5.4
5.1 4.9 4.8 4.7 4.8 5.0 5.5 6.2 6.6 7.0 6.9 6.9 6.8 6.8 6.9 6.7 6.7 6.5 6.3 6.1 6.0 5.9 5.8 5.4 5.4 5.5 5.0 5.1 5.4 5.5 5.9 5.6
5.0 5.0 4.7 4.7 4.7 5.1 5.4 5.9 6.2 6.7 6.7 6.7 6.5 6.6 6.5 6.6 6.5 6.5 6.3 6.2 6.0 6.0 5.7 5.5 5.1 5.2 5.2 4.9 4.9 5.2 5.6 5.8
5.2 4.7 4.6 4.7 4.8 5.1 5.3 5.7 6.1 6.6 6.6 6.6 6.6 6.6 6.6 6.6 6.6 6.3 6.2 6.1 5.9 5.7 5.7 5.4 5.0 4.9 4.9 5.0 4.8 4.7 5.1 6.3
5.1 4.6 4.7 4.8 4.8 5.0 5.2 5.5 5.9 6.5 6.6 6.6 6.7 6.7 6.6 6.7 6.6 6.4 6.2 5.9 5.8 5.5 5.6 5.2 5.0 4.7 4.6 4.8 4.8 4.6 4.9 5.4
4.6 4.6 4.9 4.9 5.0 5.0 5.1 5.4 5.9 6.3 6.6 6.6 6.7 6.7 6.7 6.7 6.7 6.7 6.3 6.0 5.7 5.4 5.4 5.2 4.8 4.6 4.4 4.6 5.0 4.7 4.7 5.0
4.4 4.8 5.0 5.2 5.2 5.2 5.3 5.8 6.0 6.1 6.6 6.7 6.7 6.7 6.9 6.8 6.7 6.7 6.5 6.3 5.8 5.4 5.2 5.2 4.7 4.6 4.2 4.4 4.7 4.9 4.6 4.7
4.8 5.0 5.0 5.1 5.4 5.8 5.8 5.8 5.8 6.0 6.4 6.9 6.8 6.6 6.7 6.8 6.8 6.6 6.5 6.4 6.0 5.4 4.9 4.9 4.7 4.5 4.2 4.2 4.4 4.6 4.7 4.5
5.0 5.1 5.0 5.4 5.9 6.0 5.9 5.9 5.7 5.8 6.3 6.9 7.0 6.8 6.7 6.7 6.5 6.4 6.2 6.1 5.9 5.5 4.9 4.7 4.7 4.4 4.2 3.9 4.1 4.1 4.4 4.4
5.2 5.1 5.4 5.9 6.0 6.0 6.0 5.9 5.7 5.7 6.0 6.7 7.1 7.0 6.7 6.4 6.3 6.0 5.8 5.6 5.6 5.4 5.1 4.6 4.6 4.3 4.2 3.8 3.6 4.0 4.3 4.6
5.1 5.6 6.1 6.1 6.2 6.1 6.0 5.8 5.7 5.5 5.7 6.5 7.0 6.9 6.4 6.3 6.1 5.7 5.6 5.3 5.2 5.1 5.0 4.6 4.5 4.5 4.0 4.0 3.6 3.6 4.2 4.2
5.6 6.1 6.2 6.2 6.1 6.1 5.9 5.7 5.8 5.4 5.7 6.2 6.9 7.0 6.6 6.3 6.1 5.9 5.6 5.2 5.0 4.9 4.6 4.7 4.5 4.3 4.0 3.7 3.6 3.2 3.7 4.4
6.0 6.2 6.1 6.2 6.2 6.1 5.9 5.7 5.6 5.5 5.7 6.0 6.7 7.0 6.8 6.5 6.2 6.0 5.6 5.3 5.0 4.7 4.5 4.4 4.6 4.2 3.9 3.5 3.4 3.1 3.1 3.8
6.2 6.3 6.3 6.2 6.2 6.0 5.8 5.7 5.5 5.5 5.5 5.8 6.5 7.1 6.9 6.6 6.3 6.1 5.8 5.4 5.1 4.8 4.5 4.4 4.6 4.4 3.9 4.0 3.7 3.7 3.5 3.6
Wind_Speed
13 14 13 14 14 14 15 12 14 18 15 18 15 14 16 13 13 15 20 23 24 22 19 20 20 7 9 8 8 8 11 13
12 11 12 12 11 13 15 15 14 12 11 11 10 11 9 8 14 18 22 22 23 22 17 17 19 13 12 8 7 6 9 14
13 12 11 11 11 12 14 15 15 12 11 11 9 11 9 12 17 16 23 22 21 20 18 12 14 11 13 9 9 9 6 8
14 14 13 12 12 12 13 14 15 12 15 12 11 11 10 10 11 9 19 20 20 20 19 17 14 9 10 12 8 9 8 8
14 15 15 14 12 12 13 13 14 12 17 12 15 10 9 10 11 11 18 24 20 19 21 20 15 11 11 12 10 9 8 9
15 15 14 14 12 12 11 12 14 12 13 12 11 13 7 8 9 13 14 17 21 21 20 19 14 12 10 12 13 11 9 9
14 14 14 12 11 9 9 12 14 12 12 13 12 13 11 9 12 11 12 11 12 20 23 19 17 13 13 11 13 13 12 11
14 14 13 13 10 10 9 13 13 13 13 12 13 10 11 12 11 11 13 11 10 12 19 14 11 16 17 13 12 13 12 11
13 13 11 12 10 9 9 12 13 13 12 12 12 11 9 9 12 10 9 9 10 17 17 19 18 16 16 16 10 10 12 11
12 12 10 10 8 8 8 10 12 12 12 11 10 12 12 11 12 11 9 10 11 16 17 13 16 16 14 13 11 13 12 11
12 10 10 9 7 7 8 10 12 12 12 11 8 8 8 8 8 11 12 11 14 12 11 11 12 12 12 13 13 14 13 10
10 9 9 10 9 9 10 11 12 11 11 10 10 10 6 5 5 8 11 14 14 11 11 12 12 12 12 14 15 15 15 14
8 9 10 11 11 11 12 11 11 10 11 10 11 12 12 10 4 6 12 12 16 12 11 11 11 12 12 16 16 15 16 14
7 8 10 11 11 12 12 11 11 10 11 10 11 11 12 12 9 7 11 13 13 13 13 13 12 11 12 15 16 15 15 14
9 9 10 11 12 12 11 11 10 10 11 11 8 8 10 10 11 11 12 14 13 14 13 12 12 12 13 14 17 15 14 14
11 11 10 11 11 11 11 11 9 10 11 12 12 11 12 11 12 13 13 13 13 12 12 12 11 10 11 15 15 14 12 13
12 12 13 11 11 11 11 10 9 11 10 11 12 12 13 13 13 13 12 13 13 12 11 12 12 8 20 23 20 11 12 11
11 11 11 10 9 10 10 10 8 9 10 10 13 13 13 14 14 12 12 12 13 12 11 11 12 10 20 25 26 10 9 11
9 9 8 8 9 9 9 10 10 10 10 9 11 12 13 13 14 13 13 11 12 11 11 12 12 10 20 24 25 13 11 11
Wind_Direction
21 14 13 2 11 10 5 7 2 353 1 352 356 353 340 360 2 18 21 357 357 350 346 344 338 316 308 343 310 267 270 261
8 11 7 360 6 13 5 5 359 357 4 347 353 349 335 350 7 15 15 1 356 351 351 346 347 345 339 324 325 274 274 273
360 3 6 4 5 14 7 5 356 4 6 352 354 333 353 354 351 14 8 352 354 354 353 346 341 338 333 329 340 320 242 271
353 358 360 3 9 12 10 8 355 6 6 353 349 331 2 354 343 5 1 349 345 356 353 347 338 340 332 324 330 326 321 277
353 351 1 359 10 13 15 4 359 7 6 356 346 348 10 347 350 357 350 348 342 347 351 348 341 333 335 330 332 323 298 293
355 353 3 355 8 10 9 6 358 10 4 0 351 346 7 2 341 346 343 341 343 347 348 347 341 337 332 333 323 319 306 283
352 354 355 353 2 6 6 10 357 8 4 356 349 342 13 357 344 349 342 343 341 345 340 339 343 337 330 332 322 312 304 297
349 351 345 346 353 5 6 7 357 5 360 355 347 10 2 7 1 348 336 340 342 340 337 331 342 338 335 326 327 313 308 298
348 335 338 338 356 5 22 6 358 2 358 353 339 19 21 10 354 336 331 331 331 342 330 331 338 340 340 331 326 320 310 305
323 329 337 336 356 4 21 10 7 4 355 353 346 28 20 2 339 334 330 332 330 336 332 331 331 341 341 340 331 321 317 306
313 335 330 338 360 9 20 17 12 6 355 347 23 17 12 335 328 333 332 328 327 328 334 328 332 333 345 343 337 326 324 320
309 330 342 350 7 14 14 19 14 4 354 344 7 356 336 312 326 336 335 327 333 330 337 332 337 336 348 346 339 333 322 329
330 352 346 5 7 12 13 15 11 3 346 354 18 348 340 339 352 351 346 335 336 338 336 334 345 344 354 348 338 335 331 330
350 358 3 7 9 12 11 12 4 1 344 6 19 342 336 333 347 18 359 344 343 341 341 346 348 350 2 346 341 334 332 332
2 7 10 12 12 11 5 6 359 359 352 359 358 327 325 343 8 22 5 349 343 341 343 351 352 345 5 348 342 337 331 338
5 7 11 11 10 7 3 357 358 358 4 354 350 350 353 9 15 16 1 342 340 341 344 347 351 352 360 352 344 336 334 342
5 1 5 8 7 5 359 345 8 2 3 352 350 358 358 11 12 6 342 340 340 344 345 348 344 350 356 357 350 336 341 342
4 4 9 8 9 4 352 345 5 4 359 357 354 3 2 10 0 346 344 342 339 346 344 349 344 356 359 359 350 341 347 350
5 9 12 12 11 3 344 350 10 359 354 359 358 11 6 1 353 347 342 344 345 350 352 352 352 353 6 1 351 347 349 351